Time,TemperatureF,DewpointF,PressureIn,WindDirection,WindDirectionDegrees,WindSpeedMPH,WindSpeedGustMPH,Humidity,HourlyPrecipIn,Conditions,Clouds,dailyrainin,SoftwareType,DateUTC
2013-03-05 00:00:00,43.5,35.4,30.25,North,0,0.0,0.0,73,0.00,,,0.00,WUHU216HW,2013-03-04 23:00:00,
2013-03-05 00:05:00,43.7,34.9,30.25,ENE,68,0.0,0.0,71,0.00,,,0.00,WUHU216HW,2013-03-04 23:05:00,
2013-03-05 00:10:00,44.2,34.7,30.25,ENE,68,0.8,0.8,69,0.00,,,0.00,WUHU216HW,2013-03-04 23:10:00,
2013-03-05 00:15:00,44.4,34.8,30.24,NE,45,0.0,0.8,69,0.00,,,0.00,WUHU216HW,2013-03-04 23:15:00,
2013-03-05 00:20:00,44.4,35.2,30.24,NE,45,0.0,0.8,70,0.00,,,0.00,WUHU216HW,2013-03-04 23:20:00,
2013-03-05 00:25:00,44.2,35.4,30.25,NE,45,0.0,0.0,71,0.00,,,0.00,WUHU216HW,2013-03-04 23:25:00,
2013-03-05 00:30:00,43.7,35.2,30.25,NE,45,0.0,0.0,72,0.00,,,0.00,WUHU216HW,2013-03-04 23:30:00,
2013-03-05 00:35:00,43.3,34.9,30.25,NE,45,0.0,0.0,72,0.00,,,0.00,WUHU216HW,2013-03-04 23:35:00,
2013-03-05 00:40:00,43.1,34.7,30.25,NE,45,0.0,0.0,72,0.00,,,0.00,WUHU216HW,2013-03-04 23:40:00,
2013-03-05 00:45:00,43.3,34.9,30.25,South,180,0.0,0.0,72,0.00,,,0.00,WUHU216HW,2013-03-04 23:45:00,
2013-03-05 00:50:00,43.1,34.4,30.25,South,180,0.0,0.0,71,0.00,,,0.00,WUHU216HW,2013-03-04 23:50:00,
2013-03-05 00:55:00,42.9,34.6,30.24,North,0,0.0,0.0,72,0.00,,,0.00,WUHU216HW,2013-03-04 23:55:00,
2013-03-05 01:00:00,42.6,34.2,30.24,North,0,1.1,1.1,72,0.00,,,0.00,WUHU216HW,2013-03-05 00:00:00,
2013-03-05 01:05:00,42.0,33.5,30.24,ESE,113,0.0,1.1,71,0.00,,,0.00,WUHU216HW,2013-03-05 00:05:00,
2013-03-05 01:10:00,42.0,33.4,30.25,SSE,158,0.0,1.1,71,0.00,,,0.00,WUHU216HW,2013-03-05 00:10:00,
2013-03-05 01:15:00,42.0,33.4,30.25,SSE,158,0.0,0.0,71,0.00,,,0.00,WUHU216HW,2013-03-05 00:15:00,
2013-03-05 01:20:00,42.0,33.4,30.25,South,180,0.0,0.0,71,0.00,,,0.00,WUHU216HW,2013-03-05 00:20:00,
2013-03-05 01:25:00,42.4,33.7,30.25,SSW,203,0.0,0.0,71,0.00,,,0.00,WUHU216HW,2013-03-05 00:25:00,
2013-03-05 01:30:00,42.6,33.6,30.25,SW,225,0.0,0.0,70,0.00,,,0.00,WUHU216HW,2013-03-05 00:30:00,
2013-03-05 01:35:00,42.9,33.9,30.25,North,0,0.0,0.0,70,0.00,,,0.00,WUHU216HW,2013-03-05 00:35:00,
2013-03-05 01:40:00,43.1,34.1,30.25,North,0,0.0,0.0,70,0.00,,,0.00,WUHU216HW,2013-03-05 00:40:00,
2013-03-05 01:45:00,43.5,34.0,30.25,ENE,68,0.0,0.0,69,0.00,,,0.00,WUHU216HW,2013-03-05 00:45:00,
2013-03-05 01:50:00,43.5,34.4,30.25,NE,45,0.0,0.0,70,0.00,,,0.00,WUHU216HW,2013-03-05 00:50:00,
2013-03-05 01:56:00,43.1,34.7,30.25,NW,315,1.3,1.3,72,0.00,,,0.00,WUHU216HW,2013-03-05 00:56:00,
2013-03-05 02:01:00,42.6,34.2,30.25,North,0,0.0,1.3,72,0.00,,,0.00,WUHU216HW,2013-03-05 01:01:00,
2013-03-05 02:06:00,42.6,33.9,30.25,North,0,0.0,0.8,71,0.00,,,0.00,WUHU216HW,2013-03-05 01:06:00,
2013-03-05 02:11:00,42.4,33.7,30.25,East,90,0.0,0.8,71,0.00,,,0.00,WUHU216HW,2013-03-05 01:11:00,
2013-03-05 02:16:00,42.2,33.2,30.25,NE,45,0.0,0.8,70,0.00,,,0.00,WUHU216HW,2013-03-05 01:16:00,
2013-03-05 02:21:00,42.0,33.0,30.25,ENE,68,0.0,0.0,70,0.00,,,0.00,WUHU216HW,2013-03-05 01:21:00,
2013-03-05 02:26:00,42.0,32.6,30.25,SE,135,0.0,0.0,69,0.00,,,0.00,WUHU216HW,2013-03-05 01:26:00,
2013-03-05 02:31:00,42.4,32.4,30.25,NNE,23,0.0,0.0,68,0.00,,,0.00,WUHU216HW,2013-03-05 01:31:00,
2013-03-05 02:36:00,42.0,32.6,30.25,NNE,23,0.0,0.0,69,0.00,,,0.00,WUHU216HW,2013-03-05 01:36:00,
2013-03-05 02:41:00,42.4,31.8,30.25,ENE,68,0.0,0.0,66,0.00,,,0.00,WUHU216HW,2013-03-05 01:41:00,
2013-03-05 02:46:00,42.9,31.9,30.26,ENE,68,0.8,0.8,65,0.00,,,0.00,WUHU216HW,2013-03-05 01:46:00,
2013-03-05 02:51:00,43.3,32.3,30.25,East,90,0.0,0.8,65,0.00,,,0.00,WUHU216HW,2013-03-05 01:51:00,
2013-03-05 02:56:00,43.5,32.5,30.25,ENE,68,0.0,1.1,65,0.00,,,0.00,WUHU216HW,2013-03-05 01:56:00,
2013-03-05 03:01:00,43.5,32.8,30.25,NNE,23,0.0,1.1,66,0.00,,,0.00,WUHU216HW,2013-03-05 02:01:00,
2013-03-05 03:06:00,43.1,33.7,30.26,NNE,23,0.0,0.0,69,0.00,,,0.00,WUHU216HW,2013-03-05 02:06:00,
2013-03-05 03:11:00,42.9,33.5,30.25,NNE,23,0.0,0.0,69,0.00,,,0.00,WUHU216HW,2013-03-05 02:11:00,
2013-03-05 03:16:00,42.4,33.4,30.25,NNE,23,0.0,0.0,70,0.00,,,0.00,WUHU216HW,2013-03-05 02:16:00,
2013-03-05 03:21:00,41.9,32.9,30.25,NNE,23,0.0,0.0,70,0.00,,,0.00,WUHU216HW,2013-03-05 02:21:00,
2013-03-05 03:26:00,41.5,32.5,30.25,NNE,23,0.0,0.0,70,0.00,,,0.00,WUHU216HW,2013-03-05 02:26:00,
2013-03-05 03:31:00,41.0,31.6,30.25,ENE,68,0.0,0.6,69,0.00,,,0.00,WUHU216HW,2013-03-05 02:31:00,
2013-03-05 03:36:00,40.8,31.0,30.25,NW,315,0.0,0.6,68,0.00,,,0.00,WUHU216HW,2013-03-05 02:36:00,
2013-03-05 03:41:00,40.6,30.8,30.25,WNW,293,0.0,0.0,68,0.00,,,0.00,WUHU216HW,2013-03-05 02:41:00,
2013-03-05 03:46:00,40.4,30.7,30.25,West,270,0.6,0.6,68,0.00,,,0.00,WUHU216HW,2013-03-05 02:46:00,
2013-03-05 03:51:00,40.2,30.5,30.26,SW,225,0.0,1.3,68,0.00,,,0.00,WUHU216HW,2013-03-05 02:51:00,
2013-03-05 03:56:00,40.2,30.5,30.26,WSW,248,0.0,1.3,68,0.00,,,0.00,WUHU216HW,2013-03-05 02:56:00,
2013-03-05 04:01:00,40.2,30.5,30.26,SW,225,0.0,0.8,68,0.00,,,0.00,WUHU216HW,2013-03-05 03:01:00,
2013-03-05 04:06:00,40.2,30.5,30.26,WSW,248,0.0,0.8,68,0.00,,,0.00,WUHU216HW,2013-03-05 03:06:00,
2013-03-05 04:11:00,40.2,30.5,30.26,NNE,23,0.0,1.3,68,0.00,,,0.00,WUHU216HW,2013-03-05 03:11:00,
2013-03-05 04:16:00,39.9,30.5,30.26,NNE,23,0.0,1.3,69,0.00,,,0.00,WUHU216HW,2013-03-05 03:16:00,
2013-03-05 04:21:00,39.9,30.9,30.25,NE,45,0.0,0.0,70,0.00,,,0.00,WUHU216HW,2013-03-05 03:21:00,
2013-03-05 04:26:00,39.7,30.3,30.25,NE,45,0.0,0.0,69,0.00,,,0.00,WUHU216HW,2013-03-05 03:26:00,
2013-03-05 04:31:00,39.7,30.3,30.25,NNE,23,0.0,0.0,69,0.00,,,0.00,WUHU216HW,2013-03-05 03:31:00,
2013-03-05 04:36:00,39.7,30.3,30.26,NNE,23,0.0,0.0,69,0.00,,,0.00,WUHU216HW,2013-03-05 03:36:00,
2013-03-05 04:41:00,39.9,30.1,30.25,NNE,23,0.0,0.0,68,0.00,,,0.00,WUHU216HW,2013-03-05 03:41:00,
2013-03-05 04:46:00,39.9,29.7,30.25,East,90,0.0,0.0,67,0.00,,,0.00,WUHU216HW,2013-03-05 03:46:00,
2013-03-05 04:51:00,40.4,29.1,30.25,ENE,68,0.0,1.5,64,0.00,,,0.00,WUHU216HW,2013-03-05 03:51:00,
2013-03-05 04:56:00,41.1,29.5,30.25,NE,45,0.0,1.5,63,0.00,,,0.00,WUHU216HW,2013-03-05 03:56:00,
2013-03-05 05:01:00,41.1,30.6,30.25,North,0,2.2,2.2,66,0.00,,,0.00,WUHU216HW,2013-03-05 04:01:00,
2013-03-05 05:06:00,40.8,31.0,30.25,NNE,23,0.0,2.2,68,0.00,,,0.00,WUHU216HW,2013-03-05 04:06:00,
2013-03-05 05:11:00,40.8,31.0,30.25,South,180,0.0,0.0,68,0.00,,,0.00,WUHU216HW,2013-03-05 04:11:00,
2013-03-05 05:16:00,40.8,30.6,30.25,North,0,0.0,0.0,67,0.00,,,0.00,WUHU216HW,2013-03-05 04:16:00,
2013-03-05 05:21:00,40.6,30.8,30.25,NNW,338,1.5,1.5,68,0.00,,,0.00,WUHU216HW,2013-03-05 04:21:00,
2013-03-05 05:26:00,40.2,30.9,30.25,ESE,113,0.0,1.5,69,0.00,,,0.00,WUHU216HW,2013-03-05 04:26:00,
2013-03-05 05:31:00,39.9,30.1,30.25,East,90,0.8,0.8,68,0.00,,,0.00,WUHU216HW,2013-03-05 04:31:00,
2013-03-05 05:36:00,40.2,29.7,30.25,NNE,23,0.0,2.4,66,0.00,,,0.00,WUHU216HW,2013-03-05 04:36:00,
2013-03-05 05:41:00,40.2,29.7,30.25,NE,45,0.0,2.4,66,0.00,,,0.00,WUHU216HW,2013-03-05 04:41:00,
2013-03-05 05:46:00,40.4,29.5,30.24,WNW,293,0.0,0.0,65,0.00,,,0.00,WUHU216HW,2013-03-05 04:46:00,
2013-03-05 05:51:00,40.2,29.9,30.23,SW,225,0.0,1.3,67,0.00,,,0.00,WUHU216HW,2013-03-05 04:51:00,
2013-03-05 05:56:00,40.1,29.9,30.24,SW,225,1.2,1.3,67,0.00,,,0.00,WUHU216HW,2013-03-05 04:56:00,
2013-03-05 06:00:00,40.1,29.9,30.24,SW,225,0.0,1.3,67,0.00,,,0.00,WUHU216HW,2013-03-05 05:00:00,
2013-03-05 06:05:00,39.9,30.3,30.23,WSW,248,0.0,1.1,68,0.00,,,0.00,WUHU216HW,2013-03-05 05:05:00,
2013-03-05 06:10:00,39.9,30.1,30.23,NNW,338,1.5,1.5,68,0.00,,,0.00,WUHU216HW,2013-03-05 05:10:00,
2013-03-05 06:15:00,39.5,30.1,30.24,NNW,338,0.0,1.5,69,0.00,,,0.00,WUHU216HW,2013-03-05 05:15:00,
2013-03-05 06:20:00,39.3,30.0,30.24,NNW,338,0.0,0.0,69,0.00,,,0.00,WUHU216HW,2013-03-05 05:20:00,
2013-03-05 06:25:00,39.3,30.0,30.23,NW,315,0.0,0.0,69,0.00,,,0.00,WUHU216HW,2013-03-05 05:25:00,
2013-03-05 06:30:00,39.3,30.0,30.23,NW,315,0.0,0.0,69,0.00,,,0.00,WUHU216HW,2013-03-05 05:30:00,
2013-03-05 06:35:00,39.3,30.0,30.23,North,0,1.7,1.7,69,0.00,,,0.00,WUHU216HW,2013-03-05 05:35:00,
2013-03-05 06:40:00,39.0,29.6,30.23,ENE,68,0.0,1.7,69,0.00,,,0.00,WUHU216HW,2013-03-05 05:40:00,
2013-03-05 06:45:00,39.0,29.6,30.23,SSE,158,0.6,1.7,69,0.00,,,0.00,WUHU216HW,2013-03-05 05:45:00,
2013-03-05 06:50:00,39.3,29.6,30.23,SW,225,1.1,1.1,68,0.00,,,0.00,WUHU216HW,2013-03-05 05:50:00,
2013-03-05 06:55:00,39.5,29.8,30.23,SSW,203,0.0,1.1,68,0.00,,,0.00,WUHU216HW,2013-03-05 05:55:00,
2013-03-05 07:00:00,40.1,30.3,30.22,SSW,203,0.0,0.6,68,0.00,,,0.00,WUHU216HW,2013-03-05 06:00:00,
2013-03-05 07:05:00,40.2,30.9,30.22,WNW,293,0.8,0.8,69,0.00,,,0.00,WUHU216HW,2013-03-05 06:05:00,
2013-03-05 07:10:00,40.6,31.2,30.23,West,270,0.0,0.8,69,0.00,,,0.00,WUHU216HW,2013-03-05 06:10:00,
2013-03-05 07:15:00,40.6,32.2,30.23,North,0,1.1,1.1,72,0.00,,,0.00,WUHU216HW,2013-03-05 06:15:00,
2013-03-05 07:20:00,40.1,32.0,30.23,NNE,23,0.0,1.1,73,0.00,,,0.00,WUHU216HW,2013-03-05 06:20:00,
2013-03-05 07:25:00,40.1,31.7,30.22,ENE,68,0.0,0.8,72,0.00,,,0.00,WUHU216HW,2013-03-05 06:25:00,
2013-03-05 07:30:00,40.1,31.7,30.22,ENE,68,0.0,0.0,72,0.00,,,0.00,WUHU216HW,2013-03-05 06:30:00,
2013-03-05 07:35:00,40.6,31.9,30.22,ENE,68,0.0,0.0,71,0.00,,,0.00,WUHU216HW,2013-03-05 06:35:00,
2013-03-05 07:40:00,41.0,32.3,30.22,ENE,68,0.0,0.0,71,0.00,,,0.00,WUHU216HW,2013-03-05 06:40:00,
2013-03-05 07:45:00,41.3,32.6,30.22,West,270,0.0,0.0,71,0.00,,,0.00,WUHU216HW,2013-03-05 06:45:00,
2013-03-05 07:50:00,41.9,33.5,30.22,WSW,248,0.0,0.0,72,0.00,,,0.00,WUHU216HW,2013-03-05 06:50:00,
2013-03-05 07:55:00,42.4,34.0,30.22,SSW,203,0.0,1.5,72,0.00,,,0.00,WUHU216HW,2013-03-05 06:55:00,
2013-03-05 08:00:00,42.8,34.7,30.22,WSW,248,0.9,1.5,73,0.00,,,0.00,WUHU216HW,2013-03-05 07:00:00,
2013-03-05 08:05:00,42.9,35.2,30.22,ESE,113,0.8,1.1,74,0.00,,,0.00,WUHU216HW,2013-03-05 07:05:00,
2013-03-05 08:10:00,42.9,35.7,30.22,North,0,2.0,2.4,75,0.00,,,0.00,WUHU216HW,2013-03-05 07:10:00,
2013-03-05 08:15:00,43.5,35.7,30.23,ENE,68,0.0,2.4,74,0.00,,,0.00,WUHU216HW,2013-03-05 07:15:00,
2013-03-05 08:20:00,44.2,36.7,30.23,North,350,1.9,2.0,75,0.00,,,0.00,WUHU216HW,2013-03-05 07:20:00,
2013-03-05 08:25:00,44.7,37.3,30.23,NE,45,1.5,2.4,75,0.00,,,0.00,WUHU216HW,2013-03-05 07:25:00,
2013-03-05 08:30:00,45.6,38.5,30.23,North,0,0.0,2.4,76,0.00,,,0.00,WUHU216HW,2013-03-05 07:30:00,
2013-03-05 08:35:00,45.6,38.7,30.22,NNW,338,0.6,0.6,76,0.00,,,0.00,WUHU216HW,2013-03-05 07:35:00,
2013-03-05 08:41:00,46.2,39.0,30.22,North,0,0.0,1.3,76,0.00,,,0.00,WUHU216HW,2013-03-05 07:41:00,
2013-03-05 08:46:00,46.5,39.4,30.23,West,270,1.3,1.3,76,0.00,,,0.00,WUHU216HW,2013-03-05 07:46:00,
2013-03-05 08:51:00,46.5,39.4,30.24,WSW,248,0.0,1.5,76,0.00,,,0.00,WUHU216HW,2013-03-05 07:51:00,
2013-03-05 08:56:00,46.9,39.7,30.24,WSW,248,0.0,1.5,76,0.00,,,0.00,WUHU216HW,2013-03-05 07:56:00,
2013-03-05 09:01:00,47.6,40.9,30.24,North,0,0.0,0.0,77,0.00,,,0.00,WUHU216HW,2013-03-05 08:01:00,
2013-03-05 09:06:00,48.0,41.0,30.24,NNW,338,0.8,0.8,77,0.00,,,0.00,WUHU216HW,2013-03-05 08:06:00,
2013-03-05 09:11:00,48.0,41.0,30.24,North,0,0.6,0.8,77,0.00,,,0.00,WUHU216HW,2013-03-05 08:11:00,
2013-03-05 09:16:00,48.0,41.0,30.25,NNW,338,0.8,2.2,77,0.00,,,0.00,WUHU216HW,2013-03-05 08:16:00,
2013-03-05 09:21:00,48.7,41.7,30.25,NNW,338,2.0,2.2,77,0.00,,,0.00,WUHU216HW,2013-03-05 08:21:00,
2013-03-05 09:26:00,49.1,42.1,30.24,NW,315,1.3,2.0,77,0.00,,,0.00,WUHU216HW,2013-03-05 08:26:00,
2013-03-05 09:31:00,49.6,42.6,30.25,NW,315,0.0,2.0,77,0.00,,,0.00,WUHU216HW,2013-03-05 08:31:00,
2013-03-05 09:36:00,50.7,43.4,30.24,ENE,68,0.0,1.3,76,0.00,,,0.00,WUHU216HW,2013-03-05 08:36:00,
2013-03-05 09:41:00,51.6,44.3,30.24,NNE,23,0.0,0.8,76,0.00,,,0.00,WUHU216HW,2013-03-05 08:41:00,
2013-03-05 09:46:00,52.8,44.4,30.23,North,0,1.3,1.3,73,0.00,,,0.00,WUHU216HW,2013-03-05 08:46:00,
2013-03-05 09:51:00,53.4,44.6,30.24,NW,315,0.0,1.3,72,0.00,,,0.00,WUHU216HW,2013-03-05 08:51:00,
2013-03-05 09:56:00,53.7,43.4,30.24,WNW,293,1.3,1.5,68,0.00,,,0.00,WUHU216HW,2013-03-05 08:56:00,
2013-03-05 10:01:00,54.1,43.1,30.24,NW,307,2.8,3.5,66,0.00,,,0.00,WUHU216HW,2013-03-05 09:01:00,
2013-03-05 10:06:00,54.3,42.3,30.25,North,0,3.1,3.5,64,0.00,,,0.00,WUHU216HW,2013-03-05 09:06:00,
2013-03-05 10:11:00,54.5,41.3,30.24,North,350,3.4,3.8,63,0.00,,,0.00,WUHU216HW,2013-03-05 09:11:00,
2013-03-05 10:16:00,55.2,42.7,30.24,NW,315,1.5,3.8,63,0.00,,,0.00,WUHU216HW,2013-03-05 09:16:00,
2013-03-05 10:21:00,55.7,41.6,30.24,North,0,3.3,3.3,59,0.00,,,0.00,WUHU216HW,2013-03-05 09:21:00,
2013-03-05 10:26:00,55.9,41.6,30.23,ESE,113,0.8,3.3,59,0.00,,,0.00,WUHU216HW,2013-03-05 09:26:00,
2013-03-05 10:31:00,56.3,42.3,30.24,East,90,0.6,1.7,59,0.00,,,0.00,WUHU216HW,2013-03-05 09:31:00,
2013-03-05 10:36:00,57.0,42.4,30.24,NNE,23,0.0,1.7,58,0.00,,,0.00,WUHU216HW,2013-03-05 09:36:00,
2013-03-05 10:41:00,57.7,41.1,30.23,NNW,338,1.5,1.5,54,0.00,,,0.00,WUHU216HW,2013-03-05 09:41:00,
2013-03-05 10:46:00,57.9,41.3,30.23,NNE,23,0.0,1.5,54,0.00,,,0.00,WUHU216HW,2013-03-05 09:46:00,
2013-03-05 10:51:00,58.6,40.9,30.23,East,90,0.0,2.2,53,0.00,,,0.00,WUHU216HW,2013-03-05 09:51:00,
2013-03-05 10:56:00,59.0,41.3,30.22,North,0,0.6,2.4,52,0.00,,,0.00,WUHU216HW,2013-03-05 09:56:00,
2013-03-05 11:01:00,58.4,40.9,30.22,NW,315,0.0,2.6,52,0.00,,,0.00,WUHU216HW,2013-03-05 10:01:00,
2013-03-05 11:06:00,58.2,40.7,30.22,North,0,2.2,2.6,52,0.00,,,0.00,WUHU216HW,2013-03-05 10:06:00,
2013-03-05 11:11:00,58.4,41.0,30.21,NNW,338,0.0,2.2,52,0.00,,,0.00,WUHU216HW,2013-03-05 10:11:00,
2013-03-05 11:16:00,59.0,41.3,30.21,WNW,293,0.6,1.5,52,0.00,,,0.00,WUHU216HW,2013-03-05 10:16:00,
2013-03-05 11:21:00,59.7,41.5,30.21,WNW,293,1.1,1.5,51,0.00,,,0.00,WUHU216HW,2013-03-05 10:21:00,
2013-03-05 11:26:00,59.7,41.5,30.22,WNW,293,2.9,2.9,51,0.00,,,0.00,WUHU216HW,2013-03-05 10:26:00,
2013-03-05 11:31:00,59.9,41.7,30.22,WNW,296,3.3,4.6,51,0.00,,,0.00,WUHU216HW,2013-03-05 10:31:00,
2013-03-05 11:36:00,59.9,41.7,30.22,WNW,282,4.2,4.6,51,0.00,,,0.00,WUHU216HW,2013-03-05 10:36:00,
2013-03-05 11:41:00,60.0,41.9,30.21,West,270,1.5,4.6,51,0.00,,,0.00,WUHU216HW,2013-03-05 10:41:00,
2013-03-05 11:46:00,60.9,41.0,30.21,NW,310,2.8,4.2,48,0.00,,,0.00,WUHU216HW,2013-03-05 10:46:00,
2013-03-05 11:51:00,61.3,40.4,30.21,NW,325,3.0,4.2,46,0.00,,,0.00,WUHU216HW,2013-03-05 10:51:00,
2013-03-05 11:56:00,61.3,40.8,30.21,WNW,293,1.7,3.8,47,0.00,,,0.00,WUHU216HW,2013-03-05 10:56:00,
2013-03-05 12:01:00,62.0,41.4,30.21,South,180,0.0,2.6,47,0.00,,,0.00,WUHU216HW,2013-03-05 11:01:00,
2013-03-05 12:06:00,63.3,42.0,30.20,SSE,158,0.0,2.6,46,0.00,,,0.00,WUHU216HW,2013-03-05 11:06:00,
2013-03-05 12:11:00,64.5,41.6,30.20,WSW,248,1.3,1.5,43,0.00,,,0.00,WUHU216HW,2013-03-05 11:11:00,
2013-03-05 12:16:00,64.5,36.8,30.20,NNW,329,4.0,4.9,36,0.00,,,0.00,WUHU216HW,2013-03-05 11:16:00,
2013-03-05 12:21:00,63.8,39.0,30.20,SSW,203,1.3,4.9,40,0.00,,,0.00,WUHU216HW,2013-03-05 11:21:00,
2013-03-05 12:26:00,64.2,35.0,30.20,WNW,284,3.8,5.3,34,0.00,,,0.00,WUHU216HW,2013-03-05 11:26:00,
2013-03-05 12:31:00,64.5,33.2,30.20,SW,217,6.2,10.7,30,0.00,,,0.00,WUHU216HW,2013-03-05 11:31:00,
2013-03-05 12:36:00,64.9,31.8,30.20,SW,220,4.6,13.1,29,0.00,,,0.00,WUHU216HW,2013-03-05 11:36:00,
2013-03-05 12:41:00,65.3,33.1,30.20,South,180,3.1,13.1,30,0.00,,,0.00,WUHU216HW,2013-03-05 11:41:00,
2013-03-05 12:46:00,65.3,31.1,30.19,SW,217,8.1,10.5,28,0.00,,,0.00,WUHU216HW,2013-03-05 11:46:00,
2013-03-05 12:51:00,65.4,33.3,30.20,SSE,158,5.1,10.5,30,0.00,,,0.00,WUHU216HW,2013-03-05 11:51:00,
2013-03-05 12:56:00,65.3,31.1,30.20,SW,225,6.7,6.7,28,0.00,,,0.00,WUHU216HW,2013-03-05 11:56:00,
2013-03-05 13:01:00,65.8,34.3,30.20,SSE,158,2.6,11.6,31,0.00,,,0.00,WUHU216HW,2013-03-05 12:01:00,
2013-03-05 13:06:00,66.0,31.8,30.19,SSE,158,5.3,11.6,28,0.00,,,0.00,WUHU216HW,2013-03-05 12:06:00,
2013-03-05 13:11:00,65.8,33.6,30.19,South,180,3.1,8.9,30,0.00,,,0.00,WUHU216HW,2013-03-05 12:11:00,
2013-03-05 13:16:00,65.6,33.6,30.19,SW,225,3.9,7.3,30,0.00,,,0.00,WUHU216HW,2013-03-05 12:16:00,
2013-03-05 13:21:00,65.1,33.0,30.19,SSW,212,3.0,4.6,30,0.00,,,0.00,WUHU216HW,2013-03-05 12:21:00,
2013-03-05 13:26:00,65.1,33.7,30.19,West,270,2.2,4.6,31,0.00,,,0.00,WUHU216HW,2013-03-05 12:26:00,
2013-03-05 13:31:00,65.1,34.4,30.19,WNW,293,4.9,5.1,32,0.00,,,0.00,WUHU216HW,2013-03-05 12:31:00,
2013-03-05 13:36:00,64.2,37.7,30.19,NW,323,3.5,5.1,38,0.00,,,0.00,WUHU216HW,2013-03-05 12:36:00,
2013-03-05 13:41:00,63.1,38.4,30.18,WNW,293,3.4,5.3,40,0.00,,,0.00,WUHU216HW,2013-03-05 12:41:00,
2013-03-05 13:46:00,62.4,38.3,30.18,WSW,248,4.2,5.3,41,0.00,,,0.00,WUHU216HW,2013-03-05 12:46:00,
2013-03-05 13:51:00,62.4,38.9,30.18,NW,315,8.9,8.9,42,0.00,,,0.00,WUHU216HW,2013-03-05 12:51:00,
2013-03-05 13:56:00,61.8,39.0,30.18,NW,315,2.4,8.9,43,0.00,,,0.00,WUHU216HW,2013-03-05 12:56:00,
2013-03-05 14:01:00,61.5,38.6,30.18,WNW,293,3.8,8.9,43,0.00,,,0.00,WUHU216HW,2013-03-05 13:01:00,
2013-03-05 14:06:00,61.3,39.6,30.18,West,270,3.8,6.2,45,0.00,,,0.00,WUHU216HW,2013-03-05 13:06:00,
2013-03-05 14:11:00,60.9,38.7,30.18,NW,326,6.1,6.2,44,0.00,,,0.00,WUHU216HW,2013-03-05 13:11:00,
2013-03-05 14:16:00,60.6,39.0,30.18,NW,315,3.8,6.2,45,0.00,,,0.00,WUHU216HW,2013-03-05 13:16:00,
2013-03-05 14:21:00,60.6,39.6,30.18,North,0,2.9,7.3,46,0.00,,,0.00,WUHU216HW,2013-03-05 13:21:00,
2013-03-05 14:26:00,60.6,40.0,30.18,NNE,23,2.4,7.3,47,0.00,,,0.00,WUHU216HW,2013-03-05 13:26:00,
2013-03-05 14:31:00,60.4,40.0,30.17,NE,45,3.5,4.6,47,0.00,,,0.00,WUHU216HW,2013-03-05 13:31:00,
2013-03-05 14:36:00,60.4,40.0,30.17,North,0,2.9,4.4,47,0.00,,,0.00,WUHU216HW,2013-03-05 13:36:00,
2013-03-05 14:41:00,60.4,40.6,30.17,ENE,68,0.0,4.4,48,0.00,,,0.00,WUHU216HW,2013-03-05 13:41:00,
2013-03-05 14:46:00,60.4,41.1,30.17,WNW,293,3.5,3.5,49,0.00,,,0.00,WUHU216HW,2013-03-05 13:46:00,
2013-03-05 14:51:00,60.6,41.3,30.17,NW,315,2.4,3.5,49,0.00,,,0.00,WUHU216HW,2013-03-05 13:51:00,
2013-03-05 14:56:00,60.8,40.9,30.17,NNE,23,1.5,2.4,48,0.00,,,0.00,WUHU216HW,2013-03-05 13:56:00,
2013-03-05 15:01:00,61.3,41.2,30.18,NW,315,5.1,5.1,48,0.00,,,0.00,WUHU216HW,2013-03-05 14:01:00,
2013-03-05 15:06:00,60.6,39.6,30.18,North,0,0.0,5.1,46,0.00,,,0.00,WUHU216HW,2013-03-05 14:06:00,
2013-03-05 15:11:00,60.4,40.6,30.17,NW,307,2.4,3.5,48,0.00,,,0.00,WUHU216HW,2013-03-05 14:11:00,
2013-03-05 15:16:00,59.9,40.6,30.17,North,0,2.9,4.4,49,0.00,,,0.00,WUHU216HW,2013-03-05 14:16:00,
2013-03-05 15:21:00,59.7,40.6,30.18,NNW,338,2.0,4.4,48,0.00,,,0.00,WUHU216HW,2013-03-05 14:21:00,
2013-03-05 15:26:00,59.7,41.1,30.17,NNW,338,1.3,2.6,50,0.00,,,0.00,WUHU216HW,2013-03-05 14:26:00,
2013-03-05 15:31:00,59.5,41.1,30.17,East,90,0.0,1.3,50,0.00,,,0.00,WUHU216HW,2013-03-05 14:31:00,
2013-03-05 15:36:00,59.7,41.5,30.17,NW,315,0.6,0.6,51,0.00,,,0.00,WUHU216HW,2013-03-05 14:36:00,
2013-03-05 15:41:00,59.7,41.5,30.17,NNE,23,0.0,0.6,50,0.00,,,0.00,WUHU216HW,2013-03-05 14:41:00,
2013-03-05 15:46:00,59.9,41.2,30.17,NE,45,0.8,0.8,51,0.00,,,0.00,WUHU216HW,2013-03-05 14:46:00,
2013-03-05 15:51:00,59.9,41.2,30.16,ENE,68,0.8,0.8,50,0.00,,,0.00,WUHU216HW,2013-03-05 14:51:00,
2013-03-05 15:56:00,59.9,41.2,30.16,NE,45,2.0,2.0,50,0.00,,,0.00,WUHU216HW,2013-03-05 14:56:00,
2013-03-05 16:01:00,59.7,41.5,30.15,NE,45,2.5,3.1,51,0.00,,,0.00,WUHU216HW,2013-03-05 15:01:00,
2013-03-05 16:06:00,59.5,41.8,30.14,NE,45,3.5,4.6,52,0.00,,,0.00,WUHU216HW,2013-03-05 15:06:00,
2013-03-05 16:11:00,59.7,42.0,30.14,NE,45,1.3,4.6,52,0.00,,,0.00,WUHU216HW,2013-03-05 15:11:00,
2013-03-05 16:16:00,59.7,42.0,30.14,West,270,0.0,1.3,52,0.00,,,0.00,WUHU216HW,2013-03-05 15:16:00,
2013-03-05 16:21:00,59.5,41.8,30.14,West,270,0.0,0.0,52,0.00,,,0.00,WUHU216HW,2013-03-05 15:21:00,
2013-03-05 16:26:00,59.5,41.8,30.14,SW,215,1.8,2.0,52,0.00,,,0.00,WUHU216HW,2013-03-05 15:26:00,
2013-03-05 16:31:00,59.3,42.1,30.13,SSW,203,1.5,2.0,53,0.00,,,0.00,WUHU216HW,2013-03-05 15:31:00,
2013-03-05 16:36:00,59.1,41.5,30.13,SW,225,0.0,1.5,52,0.00,,,0.00,WUHU216HW,2013-03-05 15:36:00,
2013-03-05 16:41:00,59.1,41.5,30.13,SW,225,1.5,2.4,52,0.00,,,0.00,WUHU216HW,2013-03-05 15:41:00,
2013-03-05 16:46:00,59.1,40.0,30.13,SW,225,2.2,3.8,49,0.00,,,0.00,WUHU216HW,2013-03-05 15:46:00,
2013-03-05 16:51:00,59.1,38.8,30.13,SW,235,3.8,4.0,47,0.00,,,0.00,WUHU216HW,2013-03-05 15:51:00,
2013-03-05 16:56:00,59.0,38.1,30.13,West,270,3.5,8.0,46,0.00,,,0.00,WUHU216HW,2013-03-05 15:56:00,
2013-03-05 17:01:00,58.8,37.9,30.13,SW,225,3.1,8.0,46,0.00,,,0.00,WUHU216HW,2013-03-05 16:01:00,
2013-03-05 17:06:00,58.8,37.4,30.14,WSW,248,2.9,3.3,45,0.00,,,0.00,WUHU216HW,2013-03-05 16:06:00,
2013-03-05 17:11:00,58.8,37.9,30.14,NNW,338,0.6,2.9,46,0.00,,,0.00,WUHU216HW,2013-03-05 16:11:00,
2013-03-05 17:16:00,58.8,37.4,30.14,WNW,293,2.9,2.9,45,0.00,,,0.00,WUHU216HW,2013-03-05 16:16:00,
2013-03-05 17:21:00,59.0,37.5,30.15,NW,315,0.0,2.9,45,0.00,,,0.00,WUHU216HW,2013-03-05 16:21:00,
2013-03-05 17:26:00,59.0,36.4,30.14,WSW,248,3.8,3.8,42,0.00,,,0.00,WUHU216HW,2013-03-05 16:26:00,
2013-03-05 17:31:00,59.1,36.0,30.14,West,270,3.3,3.8,42,0.00,,,0.00,WUHU216HW,2013-03-05 16:31:00,
2013-03-05 17:36:00,59.1,35.4,30.15,WSW,254,3.6,4.6,41,0.00,,,0.00,WUHU216HW,2013-03-05 16:36:00,
2013-03-05 17:41:00,59.0,37.0,30.15,NW,315,3.8,5.5,44,0.00,,,0.00,WUHU216HW,2013-03-05 16:41:00,
2013-03-05 17:46:00,58.8,40.2,30.15,NE,45,2.1,5.5,50,0.00,,,0.00,WUHU216HW,2013-03-05 16:46:00,
2013-03-05 17:51:00,58.2,41.6,30.15,NNW,338,4.2,4.4,53,0.00,,,0.00,WUHU216HW,2013-03-05 16:51:00,
2013-03-05 17:56:00,57.9,42.2,30.15,NE,56,2.5,4.2,56,0.00,,,0.00,WUHU216HW,2013-03-05 16:56:00,
2013-03-05 18:01:00,57.7,42.6,30.14,ENE,65,2.2,3.8,57,0.00,,,0.00,WUHU216HW,2013-03-05 17:01:00,
2013-03-05 18:06:00,57.3,42.7,30.14,ENE,68,2.9,3.1,58,0.00,,,0.00,WUHU216HW,2013-03-05 17:06:00,
2013-03-05 18:11:00,57.3,42.7,30.14,East,85,2.5,4.6,58,0.00,,,0.00,WUHU216HW,2013-03-05 17:11:00,
2013-03-05 18:16:00,57.2,43.0,30.13,ENE,68,3.8,4.6,58,0.00,,,0.00,WUHU216HW,2013-03-05 17:16:00,
2013-03-05 18:21:00,57.2,43.0,30.13,ENE,68,5.4,5.8,59,0.00,,,0.00,WUHU216HW,2013-03-05 17:21:00,
2013-03-05 18:26:00,57.3,43.2,30.13,ENE,68,2.3,5.8,59,0.00,,,0.00,WUHU216HW,2013-03-05 17:26:00,
2013-03-05 18:31:00,57.2,43.0,30.13,ENE,61,3.3,4.6,59,0.00,,,0.00,WUHU216HW,2013-03-05 17:31:00,
2013-03-05 18:36:00,57.0,42.8,30.13,ENE,68,0.0,4.6,59,0.00,,,0.00,WUHU216HW,2013-03-05 17:36:00,
2013-03-05 18:41:00,57.0,42.8,30.13,North,0,0.0,2.2,59,0.00,,,0.00,WUHU216HW,2013-03-05 17:41:00,
2013-03-05 18:46:00,57.0,42.8,30.15,North,0,0.0,0.8,59,0.00,,,0.00,WUHU216HW,2013-03-05 17:46:00,
2013-03-05 18:51:00,56.8,43.1,30.14,NW,315,0.0,0.0,60,0.00,,,0.00,WUHU216HW,2013-03-05 17:51:00,
2013-03-05 18:56:00,56.8,43.1,30.14,South,180,0.0,0.0,60,0.00,,,0.00,WUHU216HW,2013-03-05 17:56:00,
2013-03-05 19:01:00,56.6,43.3,30.14,SW,225,0.0,1.3,61,0.00,,,0.00,WUHU216HW,2013-03-05 18:01:00,
2013-03-05 19:06:00,56.4,43.5,30.14,East,90,0.0,1.3,62,0.00,,,0.00,WUHU216HW,2013-03-05 18:06:00,
2013-03-05 19:11:00,56.3,43.4,30.13,NNE,23,0.0,0.0,62,0.00,,,0.00,WUHU216HW,2013-03-05 18:11:00,
2013-03-05 19:17:00,56.1,43.6,30.13,NW,315,0.6,0.6,63,0.00,,,0.00,WUHU216HW,2013-03-05 18:17:00,
2013-03-05 19:22:00,55.5,45.1,30.13,ENE,68,5.1,5.1,68,0.00,,,0.00,WUHU216HW,2013-03-05 18:22:00,
2013-03-05 19:27:00,55.2,44.0,30.13,NNW,338,0.8,5.1,66,0.00,,,0.00,WUHU216HW,2013-03-05 18:27:00,
2013-03-05 19:32:00,55.2,44.4,30.13,ENE,68,0.0,2.2,67,0.00,,,0.00,WUHU216HW,2013-03-05 18:32:00,
2013-03-05 19:37:00,55.0,44.6,30.13,NE,45,0.0,0.0,68,0.00,,,0.00,WUHU216HW,2013-03-05 18:37:00,
2013-03-05 19:42:00,55.0,45.0,30.12,ENE,68,0.6,2.0,69,0.00,,,0.00,WUHU216HW,2013-03-05 18:42:00,
2013-03-05 19:47:00,54.8,45.6,30.11,NE,45,1.1,2.0,71,0.00,,,0.00,WUHU216HW,2013-03-05 18:47:00,
2013-03-05 19:52:00,54.5,45.6,30.10,NE,45,2.1,2.4,72,0.00,,,0.00,WUHU216HW,2013-03-05 18:52:00,
2013-03-05 19:57:00,54.1,45.3,30.07,East,90,3.5,3.5,72,0.00,,,0.00,WUHU216HW,2013-03-05 18:57:00,
2013-03-05 20:02:00,53.9,44.4,30.07,East,90,0.0,3.5,70,0.00,,,0.00,WUHU216HW,2013-03-05 19:02:00,
2013-03-05 20:07:00,53.9,44.4,30.06,NNW,334,3.3,3.8,70,0.00,,,0.00,WUHU216HW,2013-03-05 19:07:00,
2013-03-05 20:12:00,53.9,44.4,30.07,SSW,192,5.2,5.8,70,0.00,,,0.00,WUHU216HW,2013-03-05 19:12:00,
2013-03-05 20:17:00,53.9,44.7,30.07,SW,225,4.6,5.8,71,0.00,,,0.00,WUHU216HW,2013-03-05 19:17:00,
2013-03-05 20:22:00,53.7,44.9,30.07,South,180,3.5,5.5,72,0.00,,,0.00,WUHU216HW,2013-03-05 19:22:00,
2013-03-05 20:27:00,54.1,44.9,30.08,SW,217,1.9,5.5,71,0.00,,,0.00,WUHU216HW,2013-03-05 19:27:00,
2013-03-05 20:32:00,54.5,44.1,30.08,West,270,0.0,5.1,69,0.00,,,0.00,WUHU216HW,2013-03-05 19:32:00,
2013-03-05 20:37:00,54.6,43.9,30.08,SSW,203,0.0,5.1,67,0.00,,,0.00,WUHU216HW,2013-03-05 19:37:00,
2013-03-05 20:42:00,54.6,43.9,30.09,SSW,203,3.1,3.1,67,0.00,,,0.00,WUHU216HW,2013-03-05 19:42:00,
2013-03-05 20:47:00,55.0,43.0,30.08,South,191,2.4,4.0,64,0.00,,,0.00,WUHU216HW,2013-03-05 19:47:00,
2013-03-05 20:52:00,55.2,42.7,30.08,SW,225,0.0,4.0,63,0.00,,,0.00,WUHU216HW,2013-03-05 19:52:00,
2013-03-05 20:57:00,55.0,43.8,30.08,NE,45,4.0,4.0,66,0.00,,,0.00,WUHU216HW,2013-03-05 19:57:00,
2013-03-05 21:02:00,54.5,43.7,30.08,East,90,1.7,4.0,67,0.00,,,0.00,WUHU216HW,2013-03-05 20:02:00,
2013-03-05 21:07:00,54.1,43.3,30.09,NE,45,0.0,1.7,67,0.00,,,0.00,WUHU216HW,2013-03-05 20:07:00,
2013-03-05 21:12:00,54.1,43.7,30.09,ENE,68,1.5,2.9,68,0.00,,,0.00,WUHU216HW,2013-03-05 20:12:00,
2013-03-05 21:17:00,53.9,43.2,30.09,East,98,2.0,2.9,67,0.00,,,0.00,WUHU216HW,2013-03-05 20:17:00,
2013-03-05 21:23:00,53.9,43.2,30.09,ENE,68,3.8,3.8,66,0.00,,,0.00,WUHU216HW,2013-03-05 20:23:00,
2013-03-05 21:28:00,54.1,42.5,30.09,NE,45,0.0,3.8,65,0.00,,,0.00,WUHU216HW,2013-03-05 20:28:00,
2013-03-05 21:33:00,53.9,42.8,30.09,WNW,293,0.0,3.8,66,0.00,,,0.00,WUHU216HW,2013-03-05 20:33:00,
2013-03-05 21:38:00,53.7,43.0,30.09,West,270,0.0,0.0,67,0.00,,,0.00,WUHU216HW,2013-03-05 20:38:00,
2013-03-05 21:43:00,53.7,43.0,30.10,SE,135,0.0,0.0,67,0.00,,,0.00,WUHU216HW,2013-03-05 20:43:00,
2013-03-05 21:48:00,53.7,43.0,30.10,ESE,113,2.0,2.0,67,0.00,,,0.00,WUHU216HW,2013-03-05 20:48:00,
2013-03-05 21:53:00,53.7,43.0,30.10,ESE,113,3.8,3.8,67,0.00,,,0.00,WUHU216HW,2013-03-05 20:53:00,
2013-03-05 21:58:00,53.9,42.8,30.10,East,90,1.5,3.8,66,0.00,,,0.00,WUHU216HW,2013-03-05 20:58:00,
2013-03-05 22:03:00,54.1,42.9,30.10,ENE,68,1.1,3.5,66,0.00,,,0.00,WUHU216HW,2013-03-05 21:03:00,
2013-03-05 22:08:00,54.1,42.9,30.10,East,90,2.0,2.0,66,0.00,,,0.00,WUHU216HW,2013-03-05 21:08:00,
2013-03-05 22:13:00,54.1,42.5,30.11,ESE,113,1.5,2.4,65,0.00,,,0.00,WUHU216HW,2013-03-05 21:13:00,
2013-03-05 22:18:00,53.9,42.8,30.11,ENE,68,2.0,2.4,66,0.00,,,0.00,WUHU216HW,2013-03-05 21:18:00,
2013-03-05 22:23:00,53.9,42.0,30.11,ENE,68,2.2,2.9,64,0.00,,,0.00,WUHU216HW,2013-03-05 21:23:00,
2013-03-05 22:28:00,54.3,41.9,30.11,ENE,68,1.7,3.8,63,0.00,,,0.00,WUHU216HW,2013-03-05 21:28:00,
2013-03-05 22:33:00,54.5,41.3,30.11,ENE,68,3.8,4.4,61,0.00,,,0.00,WUHU216HW,2013-03-05 21:33:00,
2013-03-05 22:38:00,55.0,41.3,30.10,ENE,68,4.0,4.4,60,0.00,,,0.00,WUHU216HW,2013-03-05 21:38:00,
2013-03-05 22:43:00,55.2,41.0,30.11,NNE,23,3.1,4.0,59,0.00,,,0.00,WUHU216HW,2013-03-05 21:43:00,
2013-03-05 22:48:00,55.0,41.7,30.11,North,0,0.0,4.0,61,0.00,,,0.00,WUHU216HW,2013-03-05 21:48:00,
2013-03-05 22:53:00,54.5,41.7,30.11,NNE,23,1.3,1.7,62,0.00,,,0.00,WUHU216HW,2013-03-05 21:53:00,
2013-03-05 22:58:00,54.1,41.7,30.11,ENE,68,0.0,1.3,63,0.00,,,0.00,WUHU216HW,2013-03-05 21:58:00,
2013-03-05 23:03:00,53.9,42.0,30.11,East,90,0.0,0.0,64,0.00,,,0.00,WUHU216HW,2013-03-05 22:03:00,
2013-03-05 23:08:00,53.7,42.2,30.12,East,90,0.8,0.8,65,0.00,,,0.00,WUHU216HW,2013-03-05 22:08:00,
2013-03-05 23:13:00,53.4,41.1,30.11,NE,45,1.3,1.3,63,0.00,,,0.00,WUHU216HW,2013-03-05 22:13:00,
2013-03-05 23:18:00,53.9,42.0,30.11,ENE,68,0.0,1.7,64,0.00,,,0.00,WUHU216HW,2013-03-05 22:18:00,
2013-03-05 23:23:00,53.7,42.2,30.11,ESE,113,1.5,2.2,65,0.00,,,0.00,WUHU216HW,2013-03-05 22:23:00,
2013-03-05 23:28:00,53.4,41.9,30.10,ENE,68,0.0,2.2,65,0.00,,,0.00,WUHU216HW,2013-03-05 22:28:00,
2013-03-05 23:33:00,53.4,41.9,30.11,East,90,0.0,0.0,65,0.00,,,0.00,WUHU216HW,2013-03-05 22:33:00,
2013-03-05 23:38:00,53.4,41.9,30.10,East,90,0.0,0.0,65,0.00,,,0.00,WUHU216HW,2013-03-05 22:38:00,
2013-03-05 23:43:00,53.2,41.7,30.10,ENE,68,0.0,0.6,65,0.00,,,0.00,WUHU216HW,2013-03-05 22:43:00,
2013-03-05 23:48:00,53.2,43.3,30.09,NNE,23,0.8,0.8,69,0.00,,,0.00,WUHU216HW,2013-03-05 22:48:00,
2013-03-05 23:53:00,52.7,43.2,30.09,NNE,23,0.0,0.8,70,0.00,,,0.00,WUHU216HW,2013-03-05 22:53:00,
2013-03-05 23:58:00,52.3,43.2,30.08,NE,45,0.0,1.3,71,0.00,,,0.00,WUHU216HW,2013-03-05 22:58:00,